Regional Weather Roundup
Issued by NWS

Home | Current Version | Previous Version | Text Only | Print | Product List | Glossary On
Versions: 1 2 3 4 5 6 7 8 9 10 11 12 13 14 15 16 17 18 19 20 21 22 23 24 25 26 27 28 29 30 31 32 33 34 35 36 37 38 39 40 41 42 43 44 45 46 47 48 49 50
000
ASUS43 KDMX 162201
RWRIA

WEATHER ROUNDUP FOR IOWA
NATIONAL WEATHER SERVICE DES MOINES IA
400 PM CST SAT DEC 16 2017

NOTE: "FAIR" INDICATES FEW OR NO CLOUDS BELOW 12,000 FEET WITH NO
SIGNIFICANT WEATHER AND/OR OBSTRUCTIONS TO VISIBILITY.

* - THESE STATIONS ARE NOT NWS STATIONS...THUS NOT UNDER NWS
QUALITY CONTROL.  THEY ALSO DO NOT REPORT WEATHER SUCH
AS PRECIPITATION OR FOG.

IAZ001>003-012>014-020>022-031>034-043>046-162300-
   NORTHWEST IOWA

CITY           SKY/WX    TMP DP  RH WIND       PRES   REMARKS
CARROLL *      PTCLDY    52  28  40 N7        29.87R
CHEROKEE *     CLEAR     46  31  55 N9G16     29.89R
LE MARS *      CLEAR     46  32  57 N13G20    29.89S
ORANGE CITY *  PTCLDY    45  34  65 N7        29.90S
SHELDON *      CLOUDY    43  32  65 N12       29.89S
SIOUX CITY     CLEAR     47  31  53 N10       29.89R
SPENCER        PTCLDY    43  30  60 N14       29.91R
STORM LAKE *   CLEAR     45  28  53 N10       29.88R
$$

IAZ055>058-069>071-079>083-090>094-162300-
   SOUTHWEST IOWA

CITY           SKY/WX    TMP DP  RH WIND       PRES   REMARKS
ATLANTIC *     CLEAR     54  27  35 NE3       29.86R
AUDUBON *      CLEAR     50  27  40 NE5       29.87R
CLARINDA *     CLEAR     52  25  35 S5          N/A
COUNCIL BLFS * CLEAR     52  27  37 NE6       29.87R
CRESTON *      CLEAR     50  27  40 S6        29.88R
HARLAN  *      PTCLDY    50  28  43 NE5       29.90R
LAMONI         CLEAR     51  27  39 S8        29.88R
RED OAK *      CLEAR     52  27  37 SW5       29.87R
SHENANDOAH *   CLEAR     54  25  32 CALM      29.88R
$$

IAZ047>049-059>061-072>074-084-162300-
   CENTRAL IOWA

CITY           SKY/WX    TMP DP  RH WIND       PRES   REMARKS
AMES           CLEAR     51  28  41 CALM      29.87R
ANKENY *       CLEAR     52  27  37 CALM      29.89R
BOONE *        CLEAR     50  28  43 N7        29.86S
CHARITON *     CLEAR     52  27  37 SW6       29.88R
DES MOINES     MOCLDY    54  26  34 CALM      29.88R
GRINNELL*      CLEAR     50  26  39 SW6       29.89R
KNOXVILLE *    CLEAR     52  25  35 SW3       29.87R
MARSHALLTOWN   CLOUDY    51  28  41 W5        29.88R
NEWTON *       CLEAR     52  27  37 CALM      29.88R
PELLA *        CLEAR     53  25  34 SW6       29.89R
PERRY *          N/A     50  24  36 N3        29.87R
$$

IAZ004>006-015-016-023>025-035-036-162300-
   NORTH CENTRAL IOWA

CITY           SKY/WX    TMP DP  RH WIND       PRES   REMARKS
ALGONA *       CLEAR     45  30  57 N13       29.91R
CLARION *      CLEAR     45  30  57 N6        29.89R
ESTHERVILLE    PTCLDY    39  29  67 N12       29.92R WCI  32
FORT DODGE *   CLEAR     47  29  49 N5        29.89R
MASON CITY     PTCLDY    43  28  55 NE8       29.91R
FOREST CITY *    N/A     41  32  70 NE3       29.90R
WEBSTER CITY * CLOUDY    46  28  49 N8        29.87R
IOWA FALLS *     N/A     49  30  47 N6        29.89R
$$

IAZ007>011-017>019-026>030-037>042-050>054-066-162300-
   NORTHEAST IOWA

CITY           SKY/WX    TMP DP  RH WIND       PRES   REMARKS
CEDAR RAPIDS   CLEAR     49  26  41 SW5       29.88R
CHARLES CITY * CLEAR     45  28  53 NE5       29.90R
CLINTON *      CLEAR     46  26  45 SW5       29.91R
DECORAH *      CLEAR     41  28  60 E6        29.89R
DUBUQUE        CLEAR     42  28  57 E5        29.89R
MONTICELLO *   CLEAR     45  25  45 S6        29.89R
OELWEIN *      CLEAR     46  27  46 CALM      29.89R
WATERLOO       CLEAR     45  25  45 CALM      29.89R
$$

IAZ064-065-067-068-078-162300-
   EAST CENTRAL IOWA

CITY           SKY/WX    TMP DP  RH WIND       PRES   REMARKS
DAVENPORT      CLEAR     48  25  40 SW3       29.93R
IOWA CITY      CLEAR     51  27  39 SW3       29.91R
MT. PLEASANT * CLEAR     52  24  34 SW8       29.90R
MUSCATINE *    CLEAR     52  27  37 SW6       29.91R
QUAD CITIES    CLEAR     50  26  39 SW6       29.90R
$$

IAZ062-063-075>077-085>089-095>099-162300-
   SOUTHEAST IOWA

CITY           SKY/WX    TMP DP  RH WIND       PRES   REMARKS
BURLINGTON     CLEAR     51  28  41 S6        29.89R
FAIRFIELD *    CLEAR     52  25  35 W5        29.89R
FORT MADISON * CLEAR     54  28  37 SW6       29.91R
KEOKUK *       CLEAR     54  28  37 SW9       29.89R
OSKALOOSA *      N/A     50  26  39 SW7       29.89R
OTTUMWA        CLEAR     51  26  37 SW6       29.89R
WASHINGTON *   CLEAR     50  27  40 SW5       29.91R
$$

ABBREVIATIONS USED IN REMARKS
   TC - TEMPERATURES IN CELSIUS
  WCI - WIND CHILL INDEX
   HX - HEAT INDEX
  VSB - VISIBILITY
$$




USA.gov is the U.S. government's official web portal to all federal, state and local government web resources and services.